This is the latest recevied weather packets stored in our database for station/object KO5MO-10. If no packets are shown the sender has not sent any weather packets the latest 10 day(s).
| Time | Temp. | Humidity | Pressure | Rain* | Wind** | Luminosity | Snow |
|---|---|---|---|---|---|---|---|
| 1777507796 | 31.11° C | 12% | 1006.6 hPa | - | - | - | - |
| 1777506896 | 31.67° C | 12% | 1006.7 hPa | - | - | - | - |
| 1777505996 | 31.67° C | 11% | 1006.6 hPa | - | - | - | - |
| 1777505095 | 32.78° C | 11% | 1006.5 hPa | - | - | - | - |
| 1777504195 | 33.33° C | 11% | 1006.8 hPa | - | - | - | - |
| 1777503295 | 34.44° C | 11% | 1006.8 hPa | - | - | - | - |
| 1777502394 | 35° C | 10% | 1007 hPa | - | - | - | - |
| 1777501493 | 36.11° C | 9% | 1007.3 hPa | - | - | - | - |
| 1777500593 | 36.11° C | 11% | 1007.7 hPa | - | - | - | - |
| 1777499693 | 35° C | 10% | 1007.9 hPa | - | - | - | - |
| 1777498793 | 34.44° C | 10% | 1008.2 hPa | - | - | - | - |
| 1777497893 | 34.44° C | 10% | 1008.2 hPa | - | - | - | - |
| 1777496991 | 34.44° C | 10% | 1008.5 hPa | - | - | - | - |
| 1777496091 | 35.56° C | 10% | 1008.6 hPa | - | - | - | - |
| 1777495191 | 35° C | 11% | 1008.7 hPa | - | - | - | - |
| 1777494291 | 35° C | 11% | 1008.9 hPa | - | - | - | - |
| 1777493391 | 35.56° C | 11% | 1009 hPa | - | - | - | - |
| 1777492491 | 35° C | 11% | 1009.3 hPa | - | - | - | - |
| 1777491590 | 34.44° C | 11% | 1009.5 hPa | - | - | - | - |
| 1777490690 | 34.44° C | 11% | 1009.9 hPa | - | - | - | - |
| 1777489790 | 33.89° C | 12% | 1010 hPa | - | - | - | - |
| 1777488890 | 33.89° C | 12% | 1010.2 hPa | - | - | - | - |
| 1777487990 | 33.89° C | 12% | 1010.5 hPa | - | - | - | - |
| 1777487089 | 33.33° C | 13% | 1010.7 hPa | - | - | - | - |
| 1777486189 | 32.78° C | 13% | 1010.9 hPa | - | - | - | - |
* Rain since midnight (hover to see other rain measurements)
** Current wind speed in m/s (hover to see current wind gust speed)